Terminal Aerodrome Forecast
Issued by NWS

Home | Current Version | Previous Version | Text Only | Print | Product List | Glossary On
Versions: 1 2 3 4 5 6 7 8 9 10 11 12 13 14 15 16 17 18 19 20 21 22 23 24 25 26 27 28
000
FTUS45 KGJT 071120
TAFDRO
TAF
KDRO 071120Z 0712/0812 05005KT P6SM VCSH SCT070 BKN120
     FM071400 09005KT P6SM VCSH SCT050 BKN080
      TEMPO 0714/0718 -SHRA BKN050
     FM071800 25008KT P6SM -SHRA VCTS BKN050CB OVC070
      TEMPO 0718/0722 VRB10G20KT 5SM TSRA SCT030 OVC050CB
     FM080200 03005KT P6SM -SHRA VCTS BKN060CB OVC080
     FM080800 02003KT P6SM VCSH SCT060 BKN080=

USA.gov is the U.S. government's official web portal to all federal, state and local government web resources and services.